Location: Asheville, NC
(35.6000°N, 82.5500°W)
Time: 05:26:30
(UTC-05:00)

Tiangong 1 - Visible Passes

Search period start: 22 February 2018 00:00
Search period end: 04 March 2018 00:00
Orbit: 247 x 269 km, 42.8° (Epoch: 21 February)

Date Brightness Start Highest point End Pass type
(mag) Time Alt. Az. Time Alt. Az. Time Alt. Az.
27 Feb 2.7 19:12:55 10° SSE 19:13:42 11° SE 19:13:45 11° SE visible
28 Feb 2.0 19:04:09 10° SSW 19:05:51 19° SE 19:06:52 14° ESE visible
01 Mar 1.2 18:55:42 10° SW 18:57:47 32° SSE 18:59:39 12° E visible
03 Mar 3.8 20:13:30 10° NW 20:13:44 11° NW 20:13:44 11° NW visible
